"SCET";"TARGET";"ELECTRON_DENSITY";"ERROR_FLAG";"ELECTRON_DENSITY_ERROR";"FREQ_FCE";"MEASURED_VALUE";"MEASURED_ITEM";"FREQ_PLASMA";"FREQ_UPPER_HYBRID";"FREQ_R_EQUALS_ZERO";"FREQ_L_EQUALS_ZERO";"ORBIT_NUMBER";"SATURN_RADIUS";"SATURN_IAU_LONGITUDE";"SATURN_SLS4_S_LONGITUDE";"SATURN_SLS4_N_LONGITUDE";"SATURN_SLS5_S_LONGITUDE";"SATURN_SLS5_N_LONGITUDE";"SATURN_LOCAL_TIME";"SATURN_KRONOGRAPHIC_LATITUDE";"SATURN_MAGNETIC_LATITUDE";"SATURN_L";"SATURN_L_OFFSET";"SATURN_SOLAR_EQUATORIAL_X";"SATURN_SOLAR_EQUATORIAL_Y";"SATURN_SOLAR_EQUATORIAL_Z";"SATURN_ALTITUDE";"ENCELADUS_ENCOUNTER_NUMBER";"ENCELADUS_RADIUS";"ENCELADUS_COROTATIONAL_X";"ENCELADUS_COROTATIONAL_Y";"ENCELADUS_COROTATIONAL_Z";"ENCELADUS_TRUE_ANOMALY";"ENCELADUS_PERIAPSIS_TIME";"JUPITER_RADIUS";"JUPITER_SYSTEMIII_LONGITUDE";"JUPITER_MAGNETIC_LATITUDE";"JUPITER_MAGNETIC_LOCAL_TIME";"JUPITER_L";"IO_PHASE";"EARTH_RADIUS";"EARTH_MAGNETIC_LATITUDE";"EARTH_LOCAL_TIME";"EARTH_L"
"[UTC]";"[0=Saturn, 1=Enceladus, 2=Jupiter, 3=Earth]";"[cm-3]";"[0=automated, 1=manual]";"[normalized density error]";"[Hz]";"[Hz]";"[0=upper hybrid frequency, 1=plasma frequency cutoff]";"[Hz]";"[Hz]";"[Hz]";"[Hz}";"[0, A, B, C, 3, 4, ... , 292, 293]";"[Rs where 1Rs=60268km]";"[degrees]";"[degrees]";"[degrees]";"[degrees]";"[degrees]";"[hours]";"[degrees]";"[degrees where offset=2293km north]";"[Rs where 1Rs=60268km]";"[Rs where 1Rs=60268km and offset=2293km north]";"[Rs where 1Rs=60268km]";"[Rs where 1Rs=60268km]";"[Rs where 1Rs=60268km]";"[km where ellipsoid a,b=60268km and c=54364km]";"[E0, E1, E2, ... , E21, E22]";"[Renc where 1Renc=252.1km]";"[Renc where 1Renc=252.1km]";"[Renc where 1Renc=252.1km]";"[Renc where 1Renc=252.1km]";"[degrees]";"[UTC]";"[Rj where 1Rj=71492km]";"[degrees]";"[degrees using JRM09 model]";"[hours using JRM09 model]";"[Rj where 1Rj=71492km]";"[degrees]";"[Re where 1Re=6378.1366km]";"[degrees]";"[hours]";"[Re where 1Re=6378.1366km]"
2008-09-02T23:05:30.988Z;0;1.3460e+01;0;     0.176;  8792.393;  34101.266; 0;  32948.297;  34101.266;  37636.484;  28844.092; 83;   4.000; 306.393;   2.960;  42.145; 298.141;  44.209;  22.543;   5.206;   4.663;   4.033;   3.993;  -3.697;   1.483;   0.363;;;;;;;;;;;;;;;;;;
2008-09-02T23:05:38.988Z;0;1.3850e+01;0;     0.204;  8792.393;  34552.398; 0;  33414.996;  34552.398;  38099.145;  29306.750; 83;   4.000; 306.460;   3.026;  42.212; 298.206;  44.275;  22.544;   5.176;   4.633;   4.033;   3.993;  -3.698;   1.482;   0.361;;;;;;;;;;;;;;;;;;
2008-09-02T23:05:46.988Z;0;1.4190e+01;0;     0.141;  8792.393;  34947.766; 0;  33823.664;  34947.766;  38504.359;  29711.965; 83;   4.000; 306.526;   3.091;  42.280; 298.271;  44.341;  22.544;   5.147;   4.603;   4.032;   3.992;  -3.698;   1.482;   0.359;;;;;;;;;;;;;;;;;;
2008-09-02T23:05:54.988Z;0;1.4490e+01;0;     0.183;  8792.393;  35291.668; 0;  34178.879;  35291.668;  38856.641;  30064.248; 83;   4.000; 306.593;   3.157;  42.347; 298.336;  44.408;  22.545;   5.117;   4.574;   4.032;   3.992;  -3.698;   1.481;   0.357;;;;;;;;;;;;;;;;;;
2008-09-02T23:06:02.987Z;0;1.5000e+01;0;     0.174;  8792.393;  35869.969; 0;  34775.688;  35869.969;  39448.656;  30656.266; 83;   3.999; 306.660;   3.223;  42.414; 298.402;  44.474;  22.545;   5.087;   4.544;   4.031;   3.992;  -3.698;   1.481;   0.354;;;;;;;;;;;;;;;;;;
2008-09-02T23:06:10.987Z;0;1.4430e+01;0;     0.213;  8792.393;  35231.715; 0;  34116.969;  35231.715;  38795.238;  30002.846; 83;   3.999; 306.727;   3.289;  42.481; 298.467;  44.540;  22.546;   5.058;   4.515;   4.030;   3.992;  -3.698;   1.480;   0.352;;;;;;;;;;;;;;;;;;
2008-09-02T23:06:18.987Z;0;1.5780e+01;0;     0.175;  8792.393;  36738.395; 0;  35670.766;  36738.395;  40336.840;  31544.449; 83;   3.999; 306.794;   3.354;  42.549; 298.532;  44.607;  22.546;   5.028;   4.485;   4.030;   3.992;  -3.699;   1.480;   0.350;;;;;;;;;;;;;;;;;;
2008-09-02T23:06:26.987Z;0;1.5640e+01;0;     0.200;  8792.393;  36587.914; 0;  35515.762;  36587.914;  40183.008;  31390.615; 83;   3.999; 306.860;   3.420;  42.616; 298.597;  44.673;  22.547;   4.999;   4.455;   4.029;   3.991;  -3.699;   1.479;   0.348;;;;;;;;;;;;;;;;;;
2008-09-02T23:06:42.987Z;0;1.5900e+01;0;     0.160;  8792.393;  36868.367; 0;  35804.613;  36868.367;  40469.688;  31677.297; 83;   3.998; 306.994;   3.552;  42.750; 298.727;  44.805;  22.548;   4.940;   4.396;   4.028;   3.991;  -3.699;   1.478;   0.344;;;;;;;;;;;;;;;;;;
2008-09-02T23:06:50.987Z;0;1.6210e+01;0;     0.149;  8792.393;  37208.836; 0;  36155.102;  37208.836;  40817.590;  32025.197; 83;   3.998; 307.061;   3.617;  42.818; 298.792;  44.871;  22.548;   4.910;   4.366;   4.028;   3.991;  -3.699;   1.478;   0.342;;;;;;;;;;;;;;;;;;
2008-09-02T23:06:58.987Z;0;1.6130e+01;0;     0.147;  8792.393;  37126.996; 0;  36070.871;  37126.996;  40733.977;  31941.584; 83;   3.998; 307.128;   3.683;  42.885; 298.857;  44.938;  22.549;   4.880;   4.337;   4.027;   3.991;  -3.699;   1.477;   0.340;;;;;;;;;;;;;;;;;;
2008-09-02T23:07:06.987Z;0;1.6490e+01;0;     0.147;  8792.141;  37514.141; 0;  36469.289;  37514.141;  41129.359;  32337.219; 83;   3.998; 307.195;   3.749;  42.952; 298.922;  45.004;  22.550;   4.851;   4.307;   4.026;   3.991;  -3.700;   1.476;   0.338;;;;;;;;;;;;;;;;;;
2008-09-02T23:07:14.987Z;0;1.6890e+01;0;     0.141;  8792.141;  37941.789; 0;  36909.047;  37941.789;  41565.992;  32773.852; 83;   3.997; 307.261;   3.814;  43.020; 298.987;  45.070;  22.550;   4.821;   4.277;   4.026;   3.990;  -3.700;   1.476;   0.336;;;;;;;;;;;;;;;;;;
2008-09-02T23:07:22.987Z;0;1.6640e+01;0;     0.139;  8792.141;  37668.676; 0;  36628.230;  37668.676;  41287.164;  32495.023; 83;   3.997; 307.328;   3.880;  43.087; 299.053;  45.136;  22.551;   4.792;   4.248;   4.025;   3.990;  -3.700;   1.475;   0.334;;;;;;;;;;;;;;;;;;
2008-09-02T23:07:30.987Z;0;1.6830e+01;0;     0.134;  8792.141;  37877.297; 0;  36842.746;  37877.297;  41500.156;  32708.018; 83;   3.997; 307.395;   3.946;  43.154; 299.118;  45.202;  22.551;   4.762;   4.218;   4.025;   3.990;  -3.700;   1.475;   0.332;;;;;;;;;;;;;;;;;;
2008-09-02T23:07:38.987Z;0;1.7600e+01;0;     0.125;  8792.141;  38681.434; 0;  37668.973;  38681.434;  42320.691;  33528.551; 83;   3.997; 307.462;   4.012;  43.221; 299.183;  45.268;  22.552;   4.732;   4.189;   4.024;   3.990;  -3.700;   1.474;   0.330;;;;;;;;;;;;;;;;;;
2008-09-02T23:07:46.987Z;0;1.7360e+01;0;     0.128;  8792.141;  38434.445; 0;  37415.301;  38434.445;  42068.742;  33276.602; 83;   3.997; 307.529;   4.077;  43.289; 299.248;  45.334;  22.552;   4.703;   4.159;   4.024;   3.990;  -3.701;   1.474;   0.327;;;;;;;;;;;;;;;;;;
2008-09-02T23:07:54.987Z;0;1.7750e+01;0;     0.122;  8792.141;  38844.062; 0;  37835.953;  38844.062;  42486.555;  33694.414; 83;   3.996; 307.596;   4.143;  43.356; 299.313;  45.400;  22.553;   4.673;   4.129;   4.023;   3.989;  -3.701;   1.473;   0.325;;;;;;;;;;;;;;;;;;
2008-09-02T23:08:02.987Z;0;1.7930e+01;0;     0.129;  8792.476;  39028.270; 0;  38024.969;  39028.270;  42674.496;  33882.020; 83;   3.996; 307.662;   4.209;  43.423; 299.378;  45.466;  22.553;   4.644;   4.100;   4.023;   3.989;  -3.701;   1.473;   0.323;;;;;;;;;;;;;;;;;;
2008-09-02T23:08:10.987Z;0;1.7880e+01;0;     0.116;  8792.476;  38976.797; 0;  37972.137;  38976.797;  42622.016;  33829.539; 83;   3.996; 307.729;   4.275;  43.490; 299.443;  45.532;  22.554;   4.614;   4.070;   4.022;   3.989;  -3.701;   1.472;   0.321;;;;;;;;;;;;;;;;;;
2008-09-02T23:08:18.987Z;0;1.8120e+01;0;     0.104;  8792.476;  39228.828; 0;  38230.789;  39228.828;  42878.965;  34086.488; 83;   3.996; 307.796;   4.340;  43.558; 299.508;  45.598;  22.555;   4.584;   4.040;   4.021;   3.989;  -3.701;   1.472;   0.319;;;;;;;;;;;;;;;;;;
2008-09-02T23:08:26.986Z;0;1.8130e+01;0;     0.114;  8792.476;  39230.109; 0;  38232.105;  39230.109;  42880.270;  34087.793; 83;   3.996; 307.863;   4.406;  43.625; 299.573;  45.664;  22.555;   4.555;   4.011;   4.021;   3.989;  -3.701;   1.471;   0.317;;;;;;;;;;;;;;;;;;
2008-09-02T23:08:34.986Z;0;1.7970e+01;0;     0.112;  8792.476;  39067.898; 0;  38065.641;  39067.898;  42714.902;  33922.426; 83;   3.995; 307.930;   4.472;  43.692; 299.638;  45.730;  22.556;   4.525;   3.981;   4.020;   3.988;  -3.702;   1.470;   0.315;;;;;;;;;;;;;;;;;;
2008-09-02T23:08:42.986Z;0;1.8080e+01;0;     0.112;  8792.476;  39185.816; 0;  38186.656;  39185.816;  42835.117;  34042.641; 83;   3.995; 307.997;   4.537;  43.760; 299.703;  45.796;  22.556;   4.495;   3.951;   4.020;   3.988;  -3.702;   1.470;   0.313;;;;;;;;;;;;;;;;;;
2008-09-02T23:08:50.986Z;0;1.8270e+01;0;     0.100;  8792.476;  39374.410; 0;  38380.156;  39374.410;  43027.359;  34234.883; 83;   3.995; 308.063;   4.603;  43.827; 299.769;  45.862;  22.557;   4.466;   3.922;   4.019;   3.988;  -3.702;   1.469;   0.311;;;;;;;;;;;;;;;;;;
2008-09-02T23:08:58.986Z;0;1.9010e+01;0;     0.120;  8792.476;  40124.344; 0;  39149.141;  40124.344;  43791.445;  34998.969; 83;   3.995; 308.130;   4.669;  43.894; 299.834;  45.928;  22.557;   4.436;   3.892;   4.019;   3.988;  -3.702;   1.469;   0.309;;;;;;;;;;;;;;;;;;
2008-09-02T23:09:06.986Z;0;1.9030e+01;0;     0.111;  8792.812;  40152.020; 0;  39177.430;  40152.020;  43819.742;  35026.930; 83;   3.995; 308.197;   4.735;  43.961; 299.899;  45.994;  22.558;   4.407;   3.862;   4.018;   3.988;  -3.702;   1.468;   0.307;;;;;;;;;;;;;;;;;;
2008-09-02T23:09:14.986Z;0;1.9590e+01;0;     0.099;  8792.812;  40702.078; 0;  39740.980;  40702.078;  44379.828;  35587.016; 83;   3.994; 308.264;   4.800;  44.029; 299.964;  46.060;  22.558;   4.377;   3.833;   4.018;   3.988;  -3.702;   1.468;   0.305;;;;;;;;;;;;;;;;;;
2008-09-02T23:09:22.986Z;0;1.9260e+01;0;     0.110;  8792.812;  40376.656; 0;  39407.625;  40376.656;  44048.508;  35255.695; 83;   3.994; 308.331;   4.866;  44.096; 300.029;  46.126;  22.559;   4.347;   3.803;   4.017;   3.987;  -3.703;   1.467;   0.303;;;;;;;;;;;;;;;;;;
2008-09-02T23:09:30.986Z;0;1.9300e+01;0;     0.108;  8792.812;  40416.410; 0;  39448.355;  40416.410;  44088.988;  35296.176; 83;   3.994; 308.397;   4.932;  44.163; 300.094;  46.192;  22.559;   4.318;   3.773;   4.017;   3.987;  -3.703;   1.467;   0.300;;;;;;;;;;;;;;;;;;
2008-09-02T23:09:38.986Z;0;1.9530e+01;0;     0.099;  8792.812;  40643.367; 0;  39680.848;  40643.367;  44320.059;  35527.246; 83;   3.994; 308.464;   4.998;  44.230; 300.159;  46.257;  22.560;   4.288;   3.743;   4.016;   3.987;  -3.703;   1.466;   0.298;;;;;;;;;;;;;;;;;;
2008-09-02T23:09:46.986Z;0;1.9790e+01;0;     0.103;  8792.812;  40906.160; 0;  39949.973;  40906.160;  44587.559;  35794.746; 83;   3.994; 308.531;   5.063;  44.298; 300.224;  46.323;  22.561;   4.258;   3.714;   4.016;   3.987;  -3.703;   1.465;   0.296;;;;;;;;;;;;;;;;;;
2008-09-02T23:09:54.986Z;0;2.0110e+01;0;     0.104;  8792.812;  41216.629; 0;  40267.816;  41216.629;  44903.508;  36110.695; 83;   3.993; 308.598;   5.129;  44.365; 300.289;  46.389;  22.561;   4.229;   3.684;   4.015;   3.987;  -3.703;   1.465;   0.294;;;;;;;;;;;;;;;;;;
2008-09-02T23:10:18.986Z;0;2.0820e+01;0;     0.125;  8793.849;  41903.703; 0;  40970.582;  41903.703;  45602.766;  36808.918; 83;   3.993; 308.798;   5.326;  44.567; 300.486;  46.589;  22.563;   4.140;   3.595;   4.014;   3.986;  -3.704;   1.463;   0.288;;;;;;;;;;;;;;;;;;
2008-09-02T23:10:26.986Z;0;2.0990e+01;0;     0.124;  8793.849;  42069.109; 0;  41139.738;  42069.109;  45770.965;  36977.117; 83;   3.993; 308.865;   5.392;  44.634; 300.552;  46.657;  22.563;   4.110;   3.565;   4.013;   3.986;  -3.704;   1.463;   0.286;;;;;;;;;;;;;;;;;;
2008-09-02T23:10:34.986Z;0;2.1320e+01;0;     0.121;  8793.849;  42385.074; 0;  41462.789;  42385.074;  46092.195;  37298.348; 83;   3.992; 308.932;   5.458;  44.701; 300.618;  46.724;  22.564;   4.080;   3.535;   4.013;   3.986;  -3.704;   1.462;   0.284;;;;;;;;;;;;;;;;;;
2008-09-02T23:10:42.986Z;0;2.1410e+01;0;     0.126;  8793.849;  42470.059; 0;  41549.660;  42470.059;  46178.582;  37384.734; 83;   3.992; 308.999;   5.523;  44.769; 300.684;  46.791;  22.564;   4.051;   3.506;   4.012;   3.986;  -3.704;   1.462;   0.282;;;;;;;;;;;;;;;;;;
2008-09-02T23:10:50.985Z;0;2.1350e+01;0;     0.117;  8793.849;  42410.426; 0;  41488.703;  42410.426;  46117.965;  37324.117; 83;   3.992; 309.066;   5.589;  44.836; 300.750;  46.858;  22.565;   4.021;   3.476;   4.012;   3.985;  -3.704;   1.461;   0.280;;;;;;;;;;;;;;;;;;
2008-09-02T23:10:58.985Z;0;2.1780e+01;0;     0.117;  8793.849;  42820.398; 0;  41907.691;  42820.398;  46534.648;  37740.801; 83;   3.992; 309.133;   5.655;  44.903; 300.815;  46.925;  22.566;   3.991;   3.446;   4.011;   3.985;  -3.705;   1.461;   0.278;;;;;;;;;;;;;;;;;;
2008-09-02T23:11:06.985Z;0;2.1610e+01;0;     0.099;  8795.164;  42660.660; 0;  41744.184;  42660.660;  46372.762;  37577.598; 83;   3.992; 309.199;   5.721;  44.970; 300.881;  46.992;  22.566;   3.962;   3.417;   4.011;   3.985;  -3.705;   1.460;   0.276;;;;;;;;;;;;;;;;;;
2008-09-02T23:11:14.985Z;0;2.1870e+01;0;     0.109;  8795.164;  42902.117; 0;  41990.914;  42902.117;  46618.141;  37822.977; 83;   3.991; 309.266;   5.786;  45.038; 300.947;  47.060;  22.567;   3.932;   3.387;   4.010;   3.985;  -3.705;   1.459;   0.273;;;;;;;;;;;;;;;;;;
2008-09-02T23:11:22.985Z;0;2.1810e+01;0;     0.108;  8795.164;  42852.391; 0;  41940.105;  42852.391;  46567.609;  37772.445; 83;   3.991; 309.333;   5.852;  45.105; 301.013;  47.127;  22.567;   3.902;   3.357;   4.010;   3.985;  -3.705;   1.459;   0.271;;;;;;;;;;;;;;;;;;
2008-09-02T23:11:30.985Z;0;2.2360e+01;0;     0.117;  8795.164;  43368.570; 0;  42467.375;  43368.570;  47092.039;  38296.875; 83;   3.991; 309.400;   5.918;  45.172; 301.079;  47.194;  22.568;   3.873;   3.327;   4.009;   3.984;  -3.705;   1.458;   0.269;;;;;;;;;;;;;;;;;;
2008-09-02T23:11:38.985Z;0;2.3410e+01;0;     0.130;  8795.164;  44333.895; 0;  43452.727;  44333.895;  48072.266;  39277.102; 83;   3.991; 309.467;   5.983;  45.239; 301.145;  47.262;  22.568;   3.843;   3.298;   4.009;   3.984;  -3.705;   1.458;   0.267;;;;;;;;;;;;;;;;;;
2008-09-02T23:11:46.985Z;0;2.3520e+01;0;     0.142;  8795.164;  44432.312; 0;  43553.133;  44432.312;  48172.168;  39377.004; 83;   3.991; 309.533;   6.049;  45.307; 301.211;  47.329;  22.569;   3.813;   3.268;   4.008;   3.984;  -3.706;   1.457;   0.265;;;;;;;;;;;;;;;;;;
2008-09-02T23:11:54.985Z;0;2.3790e+01;0;     0.129;  8795.164;  44677.004; 0;  43802.738;  44677.004;  48420.512;  39625.348; 83;   3.990; 309.600;   6.115;  45.374; 301.277;  47.396;  22.569;   3.783;   3.238;   4.008;   3.984;  -3.706;   1.457;   0.263;;;;;;;;;;;;;;;;;;
2008-09-02T23:12:02.985Z;0;2.3960e+01;0;     0.118;  8797.040;  44823.551; 0;  43951.824;  44823.551;  48569.887;  39772.848; 83;   3.990; 309.667;   6.181;  45.441; 301.343;  47.464;  22.570;   3.754;   3.208;   4.007;   3.984;  -3.706;   1.456;   0.261;;;;;;;;;;;;;;;;;;
2008-09-02T23:12:10.985Z;0;2.3670e+01;0;     0.124;  8797.040;  44565.875; 0;  43689.008;  44565.875;  48308.387;  39511.344; 83;   3.990; 309.734;   6.246;  45.509; 301.409;  47.531;  22.570;   3.724;   3.179;   4.007;   3.984;  -3.706;   1.456;   0.259;;;;;;;;;;;;;;;;;;
2008-09-02T23:12:18.985Z;0;2.3940e+01;0;     0.121;  8797.040;  44809.445; 0;  43937.438;  44809.445;  48555.574;  39758.535; 83;   3.990; 309.801;   6.312;  45.576; 301.475;  47.598;  22.571;   3.694;   3.149;   4.006;   3.983;  -3.706;   1.455;   0.257;;;;;;;;;;;;;;;;;;
2008-09-02T23:12:26.985Z;0;2.3990e+01;0;     0.112;  8797.040;  44851.129; 0;  43979.949;  44851.129;  48597.875;  39800.832; 83;   3.990; 309.868;   6.378;  45.643; 301.541;  47.666;  22.572;   3.665;   3.119;   4.006;   3.983;  -3.706;   1.454;   0.255;;;;;;;;;;;;;;;;;;
2008-09-02T23:12:34.985Z;0;2.4190e+01;0;     0.116;  8797.040;  45034.113; 0;  44166.543;  45034.113;  48783.543;  39986.504; 83;   3.989; 309.934;   6.444;  45.710; 301.607;  47.733;  22.572;   3.635;   3.089;   4.006;   3.983;  -3.706;   1.454;   0.253;;;;;;;;;;;;;;;;;;
2008-09-02T23:12:42.985Z;0;2.4310e+01;0;     0.119;  8797.040;  45143.801; 0;  44278.379;  45143.801;  48894.832;  40097.793; 83;   3.989; 310.001;   6.509;  45.778; 301.673;  47.801;  22.573;   3.605;   3.060;   4.005;   3.983;  -3.707;   1.453;   0.251;;;;;;;;;;;;;;;;;;
2008-09-02T23:12:50.985Z;0;2.4630e+01;0;     0.122;  8797.040;  45428.887; 0;  44569.000;  45428.887;  49184.039;  40387.000; 83;   3.989; 310.068;   6.575;  45.845; 301.740;  47.868;  22.573;   3.575;   3.030;   4.005;   3.983;  -3.707;   1.453;   0.249;;;;;;;;;;;;;;;;;;
2008-09-02T23:12:58.985Z;0;2.5470e+01;0;     0.123;  8797.040;  46164.852; 0;  45318.934;  46164.852;  49930.406;  41133.367; 83;   3.989; 310.135;   6.641;  45.912; 301.806;  47.935;  22.574;   3.546;   3.000;   4.004;   3.983;  -3.707;   1.452;   0.246;;;;;;;;;;;;;;;;;;
2008-09-02T23:13:06.985Z;0;2.5430e+01;0;     0.099;  8799.141;  46127.863; 0;  45280.844;  46127.863;  49893.648;  41094.508; 83;   3.989; 310.202;   6.706;  45.979; 301.872;  48.003;  22.574;   3.516;   2.970;   4.004;   3.982;  -3.707;   1.452;   0.244;;;;;;;;;;;;;;;;;;
2008-09-02T23:13:14.984Z;0;2.5990e+01;0;     0.120;  8799.141;  46620.570; 0;  45782.668;  46620.570;  50393.145;  41594.004; 83;   3.988; 310.268;   6.772;  46.047; 301.938;  48.070;  22.575;   3.486;   2.941;   4.003;   3.982;  -3.707;   1.451;   0.242;;;;;;;;;;;;;;;;;;
2008-09-02T23:13:22.984Z;0;2.6040e+01;0;     0.108;  8799.141;  46660.629; 0;  45823.461;  46660.629;  50433.750;  41634.609; 83;   3.988; 310.335;   6.838;  46.114; 302.004;  48.138;  22.575;   3.457;   2.911;   4.003;   3.982;  -3.707;   1.451;   0.240;;;;;;;;;;;;;;;;;;
2008-09-02T23:13:30.984Z;0;2.6270e+01;0;     0.113;  8799.141;  46856.094; 0;  46022.480;  46856.094;  50631.863;  41832.723; 83;   3.988; 310.402;   6.904;  46.181; 302.070;  48.206;  22.576;   3.427;   2.881;   4.002;   3.982;  -3.708;   1.450;   0.238;;;;;;;;;;;;;;;;;;
2008-09-02T23:13:38.984Z;0;2.6030e+01;0;     0.112;  8799.141;  46654.344; 0;  45817.059;  46654.344;  50427.379;  41628.238; 83;   3.988; 310.469;   6.969;  46.248; 302.137;  48.273;  22.577;   3.397;   2.851;   4.002;   3.982;  -3.708;   1.449;   0.236;;;;;;;;;;;;;;;;;;
2008-09-02T23:13:46.984Z;0;2.6340e+01;0;     0.102;  8799.141;  46918.887; 0;  46086.410;  46918.887;  50695.500;  41896.363; 83;   3.988; 310.536;   7.035;  46.316; 302.203;  48.341;  22.577;   3.367;   2.821;   4.002;   3.982;  -3.708;   1.449;   0.234;;;;;;;;;;;;;;;;;;
2008-09-02T23:13:54.984Z;0;2.6970e+01;0;     0.115;  8799.141;  47460.461; 0;  46637.652;  47460.461;  51244.277;  42445.137; 83;   3.988; 310.603;   7.101;  46.383; 302.269;  48.408;  22.578;   3.338;   2.792;   4.001;   3.981;  -3.708;   1.448;   0.232;;;;;;;;;;;;;;;;;;
2008-09-02T23:14:02.984Z;0;2.8010e+01;0;     0.114;  8800.988;  48337.305; 0;  47529.336;  48337.305;  52133.102;  43332.113; 83;   3.987; 310.669;   7.166;  46.450; 302.335;  48.476;  22.578;   3.308;   2.762;   4.001;   3.981;  -3.708;   1.448;   0.230;;;;;;;;;;;;;;;;;;
2008-09-02T23:14:10.984Z;0;2.8220e+01;0;     0.118;  8800.988;  48508.379; 0;  47703.305;  48508.379;  52306.336;  43505.348; 83;   3.987; 310.736;   7.232;  46.517; 302.402;  48.544;  22.579;   3.278;   2.732;   4.000;   3.981;  -3.708;   1.447;   0.228;;;;;;;;;;;;;;;;;;
2008-09-02T23:14:18.984Z;0;2.8360e+01;0;     0.103;  8800.988;  48621.270; 0;  47818.098;  48621.270;  52420.645;  43619.656; 83;   3.987; 310.803;   7.298;  46.585; 302.468;  48.611;  22.579;   3.248;   2.702;   4.000;   3.981;  -3.708;   1.447;   0.226;;;;;;;;;;;;;;;;;;
2008-09-02T23:14:26.984Z;0;2.6870e+01;0;     0.107;  8800.988;  47372.488; 0;  46547.773;  47372.488;  51155.809;  42354.820; 83;   3.987; 310.870;   7.364;  46.652; 302.534;  48.679;  22.580;   3.219;   2.673;   3.999;   3.981;  -3.709;   1.446;   0.224;;;;;;;;;;;;;;;;;;
2008-09-02T23:14:34.984Z;0;2.8520e+01;0;     0.104;  8800.988;  48755.188; 0;  47954.258;  48755.188;  52556.234;  43755.246; 83;   3.987; 310.937;   7.429;  46.719; 302.601;  48.747;  22.580;   3.189;   2.643;   3.999;   3.981;  -3.709;   1.446;   0.222;;;;;;;;;;;;;;;;;;
2008-09-02T23:14:42.984Z;0;2.8670e+01;0;     0.092;  8800.988;  48881.375; 0;  48082.547;  48881.375;  52683.988;  43883.000; 83;   3.986; 311.003;   7.495;  46.787; 302.667;  48.814;  22.581;   3.159;   2.613;   3.999;   3.980;  -3.709;   1.445;   0.219;;;;;;;;;;;;;;;;;;
2008-09-02T23:14:50.984Z;0;2.8330e+01;0;     0.104;  8800.988;  48603.391; 0;  47799.918;  48603.391;  52402.543;  43601.555; 83;   3.986; 311.070;   7.561;  46.854; 302.733;  48.882;  22.581;   3.129;   2.583;   3.998;   3.980;  -3.709;   1.444;   0.217;;;;;;;;;;;;;;;;;;
2008-09-02T23:14:58.984Z;0;2.8700e+01;0;     0.099;  8800.988;  48904.062; 0;  48105.613;  48904.062;  52706.957;  43905.969; 83;   3.986; 311.137;   7.626;  46.921; 302.800;  48.950;  22.582;   3.100;   2.553;   3.998;   3.980;  -3.709;   1.444;   0.215;;;;;;;;;;;;;;;;;;
2008-09-02T23:15:06.984Z;0;2.9290e+01;0;     0.103;  8804.124;  49388.766; 0;  48597.711;  49388.766;  53198.738;  44394.613; 83;   3.986; 311.204;   7.692;  46.988; 302.866;  49.017;  22.583;   3.070;   2.524;   3.997;   3.980;  -3.709;   1.443;   0.213;;;;;;;;;;;;;;;;;;
2008-09-02T23:15:14.984Z;0;2.9460e+01;0;     0.119;  8804.124;  49526.703; 0;  48737.887;  49526.703;  53338.348;  44534.223; 83;   3.986; 311.271;   7.758;  47.056; 302.933;  49.085;  22.583;   3.040;   2.494;   3.997;   3.980;  -3.709;   1.443;   0.211;;;;;;;;;;;;;;;;;;
2008-09-02T23:15:22.984Z;0;2.9430e+01;0;     0.097;  8804.124;  49503.180; 0;  48713.984;  49503.180;  53314.539;  44510.414; 83;   3.985; 311.337;   7.824;  47.123; 302.999;  49.153;  22.584;   3.010;   2.464;   3.997;   3.980;  -3.710;   1.442;   0.209;;;;;;;;;;;;;;;;;;
2008-09-02T23:15:30.984Z;0;3.0970e+01;0;     0.128;  8804.124;  50743.059; 0;  49973.445;  50743.059;  54569.020;  45764.895; 83;   3.985; 311.404;   7.889;  47.190; 303.066;  49.221;  22.584;   2.980;   2.434;   3.996;   3.979;  -3.710;   1.442;   0.207;;;;;;;;;;;;;;;;;;
2008-09-02T23:15:38.983Z;0;3.0810e+01;0;     0.115;  8804.124;  50618.289; 0;  49846.750;  50618.289;  54442.812;  45638.688; 83;   3.985; 311.471;   7.955;  47.257; 303.132;  49.289;  22.585;   2.951;   2.404;   3.996;   3.979;  -3.710;   1.441;   0.205;;;;;;;;;;;;;;;;;;
2008-09-02T23:15:46.983Z;0;3.0880e+01;0;     0.115;  8804.124;  50674.426; 0;  49903.754;  50674.426;  54499.598;  45695.473; 83;   3.985; 311.538;   8.021;  47.325; 303.199;  49.356;  22.585;   2.921;   2.374;   3.995;   3.979;  -3.710;   1.440;   0.203;;;;;;;;;;;;;;;;;;
2008-09-02T23:15:54.983Z;0;3.0840e+01;0;     0.127;  8804.124;  50639.824; 0;  49868.621;  50639.824;  54464.598;  45660.473; 83;   3.985; 311.605;   8.086;  47.392; 303.265;  49.424;  22.586;   2.891;   2.345;   3.995;   3.979;  -3.710;   1.440;   0.201;;;;;;;;;;;;;;;;;;
2008-09-02T23:16:02.983Z;0;3.1540e+01;0;     0.114;  8807.764;  51198.137; 0;  50434.836;  51198.137;  55030.621;  46222.855; 83;   3.985; 311.672;   8.152;  47.459; 303.332;  49.492;  22.586;   2.861;   2.315;   3.995;   3.979;  -3.710;   1.439;   0.199;;;;;;;;;;;;;;;;;;
2008-09-02T23:16:10.983Z;0;3.1610e+01;0;     0.099;  8807.764;  51247.406; 0;  50484.848;  51247.406;  55080.445;  46272.684; 83;   3.984; 311.738;   8.218;  47.526; 303.398;  49.560;  22.587;   2.832;   2.285;   3.994;   3.979;  -3.710;   1.439;   0.197;;;;;;;;;;;;;;;;;;
2008-09-02T23:16:18.983Z;0;3.1720e+01;0;     0.108;  8807.764;  51340.512; 0;  50579.359;  51340.512;  55174.598;  46366.836; 83;   3.984; 311.805;   8.284;  47.594; 303.465;  49.628;  22.588;   2.802;   2.255;   3.994;   3.978;  -3.711;   1.438;   0.195;;;;;;;;;;;;;;;;;;
2008-09-02T23:16:26.983Z;0;3.1660e+01;0;     0.100;  8807.764;  51291.984; 0;  50530.098;  51291.984;  55125.527;  46317.762; 83;   3.984; 311.872;   8.349;  47.661; 303.531;  49.696;  22.588;   2.772;   2.225;   3.993;   3.978;  -3.711;   1.438;   0.192;;;;;;;;;;;;;;;;;;